Weather History for CWLS - November, 2012

Change the Weather History Date:

Wednesday, November 14, 2012

  Actual Average Record
Temperature  
Mean Temperature 32 °F -  
Max Temperature 36 °F - - ()
Min Temperature 29 °F - - ()
Degree Days  
Heating Degree Days 32    
Moisture  
Dew Point 24 °F    
Average Humidity 68    
Maximum Humidity 77    
Minimum Humidity 46    
Precipitation  
Precipitation 0.00 in - - ()
Sea Level Pressure  
Sea Level Pressure 30.56 in    
Wind  
Wind Speed 3 mph ()    
Max Wind Speed 5 mph    
Max Gust Speed -    
T = Trace of Precipitation, MM = Missing Value Source: Averaged Metar Reports

Daily Weather History Graph

Daily Weather History Graph

Search for Another Location

Airport or City:

Trip Planner

Search our weather history database for the weather conditions in past years. The results will help you decide how hot, cold, wet, or windy it might be!

Date:

Astronomy

Nov. 14, 2012 Rise Set
Actual Time 7:17 AM EST 4:57 PM EST
Civil Twilight 6:46 AM EST 5:28 PM EST
Nautical Twilight 6:11 AM EST 6:03 PM EST
Astronomical Twilight 5:37 AM EST 6:37 PM EST
Moon 8:06 AM EST (11/14) 5:42 PM EST (11/14)
Length of Visible Light 10h 42m
Length of Day
9h 40m
New Moon, 1% of the Moon is Illuminated
Nov 14
New Moon
Nov 20
First Quarter
Nov 28
Full
Dec 6
Last Quarter
Dec 13
New

Hourly Weather History & Observations

Time (EST) Temp. Windchill Dew Point Humidity Pressure Visibility Wind Dir Wind Speed Gust Speed Precip Events Conditions
12:00 AM 30.0 °F 25.2 °F 23.7 °F 77% 30.54 in - SSW 4.6 mph - N/A   Unknown
1:00 AM 30 °F - 23 °F 67% 30.55 in - SW 4.6 mph - -  
1:00 AM 30.0 °F 25.2 °F 23.2 °F 76% 30.55 in - SW 4.6 mph - N/A   Unknown
2:00 AM 30.0 °F 26.5 °F 23.2 °F 76% 30.55 in - SW 3.5 mph - N/A   Unknown
3:00 AM 29.8 °F 26.3 °F 22.5 °F 74% 30.56 in - South 3.5 mph - N/A   Unknown
4:00 AM 30 °F - 23 °F 64% 30.56 in - South 3.5 mph - -  
4:00 AM 29.7 °F 26.1 °F 22.6 °F 75% 30.56 in - South 3.5 mph - N/A   Unknown
5:00 AM 29.7 °F 26.1 °F 22.6 °F 75% 30.58 in - South 3.5 mph - N/A   Unknown
6:00 AM 29.7 °F - 23.2 °F 77% 30.58 in - SW 2.3 mph - N/A   Unknown
7:00 AM 30 °F - 23 °F 66% 30.58 in - SSW 3.5 mph - -  
7:00 AM 29.7 °F 26.1 °F 23.0 °F 76% 30.58 in - SSW 3.5 mph - N/A   Unknown
8:00 AM 30.0 °F 26.5 °F 23.4 °F 76% 30.60 in - South 3.5 mph - N/A   Unknown
9:00 AM 30.9 °F - 23.7 °F 75% 30.61 in - SSW 2.3 mph - N/A   Unknown
10:00 AM 33 °F - 25 °F 63% 30.61 in - West 1.2 mph - -  
10:00 AM 32.9 °F - 25.2 °F 73% 30.61 in - West 1.2 mph - N/A   Unknown
11:00 AM 34.3 °F - 25.3 °F 70% 30.61 in - West 2.3 mph - N/A   Unknown
12:00 PM 36.0 °F - 26.1 °F 67% 30.59 in - North 1.2 mph - N/A   Unknown
1:00 PM 36 °F - 23 °F 46% 30.58 in - South 4.6 mph - -  
1:00 PM 36.0 °F 32.1 °F 22.8 °F 59% 30.58 in - South 4.6 mph - N/A   Unknown
2:00 PM 36.3 °F 33.7 °F 23.0 °F 59% 30.56 in - SSE 3.5 mph - N/A   Unknown
3:00 PM 36.3 °F 33.7 °F 23.5 °F 60% 30.54 in - ESE 3.5 mph - N/A   Unknown
4:00 PM 36 °F - 23 °F 47% 30.55 in - SE 3.5 mph - -  
4:00 PM 35.8 °F 33.0 °F 23.2 °F 60% 30.55 in - SE 3.5 mph - N/A   Unknown
5:00 PM 35.1 °F - 23.9 °F 64% 30.53 in - East 2.3 mph - N/A   Unknown
6:00 PM 33.4 °F - 24.4 °F 70% 30.53 in - East 2.3 mph - N/A   Unknown
7:00 PM 32 °F - 24 °F 62% 30.52 in - ESE 3.5 mph - -  
7:00 PM 31.6 °F 28.3 °F 23.9 °F 73% 30.52 in - ESE 3.5 mph - N/A   Unknown
8:00 PM 32.0 °F - 23.7 °F 71% 30.51 in - SE 2.3 mph - N/A   Unknown
9:00 PM 31.1 °F - 23.2 °F 72% 30.50 in - SE 2.3 mph - N/A   Unknown
10:00 PM 31 °F - 23 °F 64% 30.50 in - South 1.2 mph - -  
10:00 PM 30.6 °F - 23.4 °F 75% 30.50 in - South 1.2 mph - N/A   Unknown
11:00 PM 29.7 °F - 23.0 °F 76% 30.49 in - ESE 2.3 mph - N/A   Unknown